Time,TemperatureF,DewpointF,PressureIn,WindDirection,WindDirectionDegrees,WindSpeedMPH,WindSpeedGustMPH,Humidity,HourlyPrecipIn,Conditions,Clouds,dailyrainin,SoftwareType,DateUTC
2013-09-02 00:01:00,71.2,70.6,29.48,ENE,63,0.0,1.1,98,0.00,RA,SCT,0.00,WeatherDisplay:10.37,2013-09-02 04:01:00,
2013-09-02 00:06:00,71.2,70.6,29.48,SE,126,0.0,0.0,98,0.00,RA,SCT,0.00,WeatherDisplay:10.37,2013-09-02 04:06:00,
2013-09-02 00:11:00,71.2,70.6,29.48,ESE,121,0.1,1.1,98,0.00,CLR,SCT,0.00,WeatherDisplay:10.37,2013-09-02 04:11:00,
2013-09-02 00:16:00,71.1,70.5,29.47,ESE,121,0.0,0.0,98,0.00,CLR,SCT,0.00,WeatherDisplay:10.37,2013-09-02 04:16:00,
2013-09-02 00:21:00,71.1,70.5,29.47,ESE,121,0.1,1.1,98,0.00,CLR,SCT,0.00,WeatherDisplay:10.37,2013-09-02 04:21:00,
2013-09-02 00:26:00,71.1,70.5,29.47,ESE,121,0.0,0.0,98,0.00,CLR,SCT,0.00,WeatherDisplay:10.37,2013-09-02 04:26:00,
2013-09-02 00:31:00,71.0,70.4,29.47,ESE,121,0.0,0.0,98,0.00,CLR,SCT,0.00,WeatherDisplay:10.37,2013-09-02 04:31:00,
2013-09-02 00:36:00,71.0,70.4,29.48,ESE,121,0.0,0.0,98,0.00,CLR,SCT,0.00,WeatherDisplay:10.37,2013-09-02 04:36:00,
2013-09-02 00:41:00,71.0,70.4,29.47,ESE,121,0.0,0.0,98,0.00,CLR,SCT,0.00,WeatherDisplay:10.37,2013-09-02 04:41:00,
2013-09-02 00:46:00,71.0,70.4,29.47,ESE,121,0.0,0.0,98,0.00,CLR,SCT,0.00,WeatherDisplay:10.37,2013-09-02 04:46:00,
2013-09-02 00:51:00,70.9,70.3,29.48,ESE,121,0.0,0.0,98,0.00,CLR,SCT,0.00,WeatherDisplay:10.37,2013-09-02 04:51:00,
2013-09-02 00:56:00,70.9,70.3,29.47,ESE,121,0.0,0.0,98,0.00,CLR,SCT,0.00,WeatherDisplay:10.37,2013-09-02 04:56:00,
2013-09-02 01:01:00,70.9,70.3,29.47,ESE,121,0.0,0.0,98,0.00,CLR,SCT,0.00,WeatherDisplay:10.37,2013-09-02 05:01:00,
2013-09-02 01:06:00,70.8,70.2,29.47,ESE,121,0.0,1.1,98,0.00,CLR,SCT,0.00,WeatherDisplay:10.37,2013-09-02 05:06:00,
2013-09-02 01:11:00,70.8,70.2,29.47,ESE,121,0.0,0.0,98,0.00,CLR,SCT,0.00,WeatherDisplay:10.37,2013-09-02 05:11:00,
2013-09-02 01:16:00,70.8,70.2,29.47,SSE,157,0.0,0.0,98,0.00,CLR,SCT,0.00,WeatherDisplay:10.37,2013-09-02 05:16:00,
2013-09-02 01:21:00,70.8,70.5,29.47,SSE,157,0.1,0.0,99,0.00,CLR,SCT,0.00,WeatherDisplay:10.37,2013-09-02 05:21:00,
2013-09-02 01:26:00,70.7,70.4,29.47,SSE,157,0.0,0.0,99,0.00,CLR,SCT,0.00,WeatherDisplay:10.37,2013-09-02 05:26:00,
2013-09-02 01:31:00,70.7,70.4,29.47,SSE,157,0.0,0.0,99,0.00,CLR,SCT,0.00,WeatherDisplay:10.37,2013-09-02 05:31:00,
2013-09-02 01:36:00,70.7,70.4,29.47,SSE,157,0.0,0.0,99,0.00,CLR,SCT,0.00,WeatherDisplay:10.37,2013-09-02 05:36:00,
2013-09-02 01:41:00,70.8,70.5,29.47,SSE,157,0.0,0.0,99,0.00,CLR,SCT,0.00,WeatherDisplay:10.37,2013-09-02 05:41:00,
2013-09-02 01:46:00,70.7,70.4,29.47,SE,146,0.0,0.0,99,0.00,CLR,SCT,0.00,WeatherDisplay:10.37,2013-09-02 05:46:00,
2013-09-02 01:51:00,70.8,70.5,29.47,SE,146,0.0,0.0,99,0.00,CLR,SCT,0.00,WeatherDisplay:10.37,2013-09-02 05:51:00,
2013-09-02 01:56:00,70.8,70.5,29.47,SE,146,0.0,0.0,99,0.00,CLR,SCT,0.00,WeatherDisplay:10.37,2013-09-02 05:56:00,
2013-09-02 02:01:00,70.8,70.5,29.47,SE,146,0.0,0.0,99,0.00,CLR,SCT,0.00,WeatherDisplay:10.37,2013-09-02 06:01:00,
2013-09-02 02:06:00,70.7,70.4,29.46,SE,146,0.0,0.0,99,0.00,CLR,SCT,0.00,WeatherDisplay:10.37,2013-09-02 06:06:00,
2013-09-02 02:11:00,70.8,70.5,29.47,SE,146,0.0,0.0,99,0.00,CLR,SCT,0.00,WeatherDisplay:10.37,2013-09-02 06:11:00,
2013-09-02 02:16:00,70.8,70.5,29.46,SE,146,0.0,0.0,99,0.00,CLR,SCT,0.00,WeatherDisplay:10.37,2013-09-02 06:16:00,
2013-09-02 02:21:00,70.8,70.5,29.46,SE,146,0.0,0.0,99,0.00,CLR,SCT,0.00,WeatherDisplay:10.37,2013-09-02 06:21:00,
2013-09-02 02:26:00,70.7,70.4,29.46,SE,146,0.0,0.0,99,0.00,CLR,SCT,0.00,WeatherDisplay:10.37,2013-09-02 06:26:00,
2013-09-02 02:31:00,70.7,70.4,29.46,SE,146,0.0,0.0,99,0.00,CLR,SCT,0.00,WeatherDisplay:10.37,2013-09-02 06:31:00,
2013-09-02 02:36:00,70.8,70.5,29.46,SE,146,0.0,0.0,99,0.00,CLR,SCT,0.00,WeatherDisplay:10.37,2013-09-02 06:36:00,
2013-09-02 02:41:00,70.8,70.5,29.46,SE,146,0.0,0.0,99,0.00,CLR,SCT,0.00,WeatherDisplay:10.37,2013-09-02 06:41:00,
2013-09-02 02:46:00,70.8,70.5,29.46,SE,146,0.0,0.0,99,0.00,CLR,SCT,0.00,WeatherDisplay:10.37,2013-09-02 06:46:00,
2013-09-02 02:51:00,70.8,70.5,29.46,SE,146,0.0,0.0,99,0.00,CLR,SCT,0.00,WeatherDisplay:10.37,2013-09-02 06:51:00,
2013-09-02 02:56:00,70.8,70.5,29.45,SE,146,0.0,0.0,99,0.00,CLR,SCT,0.00,WeatherDisplay:10.37,2013-09-02 06:56:00,
2013-09-02 03:01:00,70.9,70.6,29.45,SE,146,0.1,1.1,99,0.00,CLR,SCT,0.00,WeatherDisplay:10.37,2013-09-02 07:01:00,
2013-09-02 03:06:00,71.0,70.7,29.45,SE,146,0.0,1.1,99,0.00,CLR,SCT,0.00,WeatherDisplay:10.37,2013-09-02 07:06:00,
2013-09-02 03:11:00,71.1,70.8,29.44,SE,146,0.0,0.0,99,0.00,CLR,SCT,0.00,WeatherDisplay:10.37,2013-09-02 07:11:00,
2013-09-02 03:16:00,71.1,70.8,29.44,SE,146,0.0,0.0,99,0.00,CLR,SCT,0.00,WeatherDisplay:10.37,2013-09-02 07:16:00,
2013-09-02 03:21:00,71.1,70.8,29.44,SE,146,0.0,0.0,99,0.00,CLR,SCT,0.00,WeatherDisplay:10.37,2013-09-02 07:21:00,
2013-09-02 03:26:00,71.1,70.8,29.44,SE,146,0.0,0.0,99,0.00,CLR,SCT,0.00,WeatherDisplay:10.37,2013-09-02 07:26:00,
2013-09-02 03:31:00,71.1,70.8,29.44,East,87,0.0,2.3,99,0.00,CLR,SCT,0.00,WeatherDisplay:10.37,2013-09-02 07:31:00,
2013-09-02 03:36:00,71.0,70.7,29.44,East,87,0.7,1.1,99,0.00,CLR,SCT,0.00,WeatherDisplay:10.37,2013-09-02 07:36:00,
2013-09-02 03:41:00,71.0,70.7,29.43,East,87,0.2,1.1,99,0.00,CLR,SCT,0.00,WeatherDisplay:10.37,2013-09-02 07:41:00,
2013-09-02 03:46:00,71.0,70.7,29.43,East,87,0.0,0.0,99,0.00,CLR,SCT,0.00,WeatherDisplay:10.37,2013-09-02 07:46:00,
2013-09-02 03:51:00,71.0,70.7,29.43,East,87,0.0,0.0,99,0.00,CLR,SCT,0.00,WeatherDisplay:10.37,2013-09-02 07:51:00,
2013-09-02 03:56:00,71.0,70.7,29.43,East,87,0.0,0.0,99,0.00,CLR,SCT,0.00,WeatherDisplay:10.37,2013-09-02 07:56:00,
2013-09-02 04:01:00,71.0,70.7,29.43,East,87,0.0,0.0,99,0.00,CLR,SCT,0.00,WeatherDisplay:10.37,2013-09-02 08:01:00,
2013-09-02 04:06:00,71.0,70.7,29.43,East,88,0.1,1.1,99,0.00,CLR,SCT,0.00,WeatherDisplay:10.37,2013-09-02 08:06:00,
2013-09-02 04:11:00,71.0,70.7,29.43,East,88,0.0,0.0,99,0.00,CLR,SCT,0.00,WeatherDisplay:10.37,2013-09-02 08:11:00,
2013-09-02 04:16:00,71.0,70.7,29.43,East,88,0.0,0.0,99,0.00,CLR,SCT,0.00,WeatherDisplay:10.37,2013-09-02 08:16:00,
2013-09-02 04:21:00,71.1,70.8,29.43,East,88,0.0,0.0,99,0.00,CLR,SCT,0.00,WeatherDisplay:10.37,2013-09-02 08:21:00,
2013-09-02 04:26:00,71.0,70.7,29.43,East,88,0.0,0.0,99,0.00,CLR,SCT,0.00,WeatherDisplay:10.37,2013-09-02 08:26:00,
2013-09-02 04:31:00,71.0,70.7,29.43,East,88,0.0,0.0,99,0.00,CLR,SCT,0.00,WeatherDisplay:10.37,2013-09-02 08:31:00,
2013-09-02 04:36:00,71.0,70.7,29.43,East,88,0.0,0.0,99,0.00,CLR,SCT,0.00,WeatherDisplay:10.37,2013-09-02 08:36:00,
2013-09-02 04:41:00,71.0,70.7,29.43,East,88,0.0,0.0,99,0.00,CLR,SCT,0.00,WeatherDisplay:10.37,2013-09-02 08:41:00,
2013-09-02 04:46:00,71.1,70.8,29.43,East,88,0.0,0.0,99,0.00,CLR,SCT,0.00,WeatherDisplay:10.37,2013-09-02 08:46:00,
2013-09-02 04:51:00,71.1,70.8,29.43,East,88,0.0,0.0,99,0.00,CLR,SCT,0.00,WeatherDisplay:10.37,2013-09-02 08:51:00,
2013-09-02 04:56:00,71.1,70.8,29.43,East,88,0.1,1.1,99,0.00,CLR,SCT,0.00,WeatherDisplay:10.37,2013-09-02 08:56:00,
2013-09-02 05:01:00,71.1,70.8,29.43,East,88,0.0,0.0,99,0.00,CLR,SCT,0.00,WeatherDisplay:10.37,2013-09-02 09:01:00,
2013-09-02 05:06:00,71.1,70.8,29.43,East,88,0.0,1.1,99,0.00,CLR,SCT,0.00,WeatherDisplay:10.37,2013-09-02 09:06:00,
2013-09-02 05:11:00,71.1,70.8,29.44,East,88,0.0,0.0,99,0.00,CLR,SCT,0.00,WeatherDisplay:10.37,2013-09-02 09:11:00,
2013-09-02 05:16:00,71.1,70.8,29.44,East,88,0.0,0.0,99,0.00,CLR,SCT,0.00,WeatherDisplay:10.37,2013-09-02 09:16:00,
2013-09-02 05:21:00,71.1,70.8,29.44,East,88,0.0,0.0,99,0.01,RA,SCT,0.01,WeatherDisplay:10.37,2013-09-02 09:21:00,
2013-09-02 05:26:00,71.1,70.8,29.44,East,88,0.0,0.0,99,0.01,RA,SCT,0.01,WeatherDisplay:10.37,2013-09-02 09:26:00,
2013-09-02 05:31:00,71.2,70.9,29.44,East,88,0.0,0.0,99,0.01,,SCT,0.01,WeatherDisplay:10.37,2013-09-02 09:31:00,
2013-09-02 05:36:00,71.2,70.9,29.44,East,88,0.0,0.0,99,0.01,CLR,SCT,0.01,WeatherDisplay:10.37,2013-09-02 09:36:00,
2013-09-02 05:41:00,71.2,70.9,29.44,East,88,0.0,0.0,99,0.01,CLR,SCT,0.01,WeatherDisplay:10.37,2013-09-02 09:41:00,
2013-09-02 05:46:00,71.2,70.9,29.44,East,88,0.0,0.0,99,0.01,CLR,SCT,0.01,WeatherDisplay:10.37,2013-09-02 09:46:00,
2013-09-02 05:51:00,71.2,70.9,29.44,East,88,0.0,0.0,99,0.01,CLR,SCT,0.01,WeatherDisplay:10.37,2013-09-02 09:51:00,
2013-09-02 05:56:00,71.2,70.9,29.44,East,88,0.0,0.0,99,0.01,CLR,SCT,0.01,WeatherDisplay:10.37,2013-09-02 09:56:00,
2013-09-02 06:01:00,71.2,70.9,29.44,East,88,0.0,0.0,99,0.01,CLR,SCT,0.01,WeatherDisplay:10.37,2013-09-02 10:01:00,
2013-09-02 06:06:00,71.2,70.9,29.44,East,88,0.0,0.0,99,0.01,CLR,SCT,0.01,WeatherDisplay:10.37,2013-09-02 10:06:00,
2013-09-02 06:11:00,71.2,70.9,29.44,East,88,0.0,0.0,99,0.01,CLR,SCT,0.01,WeatherDisplay:10.37,2013-09-02 10:11:00,
2013-09-02 06:16:00,71.1,70.8,29.44,East,88,0.0,0.0,99,0.01,CLR,SCT,0.01,WeatherDisplay:10.37,2013-09-02 10:16:00,
2013-09-02 06:21:00,71.1,70.8,29.44,East,88,0.0,0.0,99,0.00,CLR,SCT,0.01,WeatherDisplay:10.37,2013-09-02 10:21:00,
2013-09-02 06:26:00,71.1,70.8,29.44,East,88,0.0,0.0,99,0.00,CLR,SCT,0.01,WeatherDisplay:10.37,2013-09-02 10:26:00,
2013-09-02 06:31:00,71.2,70.9,29.44,East,88,0.0,0.0,99,0.00,CLR,SCT,0.01,WeatherDisplay:10.37,2013-09-02 10:31:00,
2013-09-02 06:36:00,71.2,70.9,29.44,East,88,0.0,0.0,99,0.00,CLR,SCT,0.01,WeatherDisplay:10.37,2013-09-02 10:36:00,
2013-09-02 06:41:00,71.2,70.9,29.44,East,88,0.0,0.0,99,0.00,CLR,SCT,0.01,WeatherDisplay:10.37,2013-09-02 10:41:00,
2013-09-02 06:46:00,71.2,70.9,29.44,East,88,0.0,0.0,99,0.00,CLR,SCT,0.01,WeatherDisplay:10.37,2013-09-02 10:46:00,
2013-09-02 06:51:00,71.2,70.9,29.44,East,88,0.0,0.0,99,0.00,CLR,SCT,0.01,WeatherDisplay:10.37,2013-09-02 10:51:00,
2013-09-02 06:56:00,71.2,70.9,29.44,East,88,0.0,0.0,99,0.00,CLR,SCT,0.01,WeatherDisplay:10.37,2013-09-02 10:56:00,
2013-09-02 07:01:00,71.3,71.0,29.44,East,88,0.0,0.0,99,0.00,CLR,SCT,0.01,WeatherDisplay:10.37,2013-09-02 11:01:00,
2013-09-02 07:06:00,71.3,71.0,29.44,East,88,0.0,0.0,99,0.00,CLR,SCT,0.01,WeatherDisplay:10.37,2013-09-02 11:06:00,
2013-09-02 07:11:00,71.3,71.0,29.45,East,88,0.0,0.0,99,0.00,CLR,SCT,0.01,WeatherDisplay:10.37,2013-09-02 11:11:00,
2013-09-02 07:16:00,71.3,71.0,29.44,East,88,0.0,0.0,99,0.00,CLR,SCT,0.01,WeatherDisplay:10.37,2013-09-02 11:16:00,
2013-09-02 07:21:00,71.3,71.0,29.44,East,88,0.0,0.0,99,0.00,CLR,SCT,0.01,WeatherDisplay:10.37,2013-09-02 11:21:00,
2013-09-02 07:26:00,71.4,71.1,29.44,East,88,0.0,0.0,99,0.00,CLR,SCT,0.01,WeatherDisplay:10.37,2013-09-02 11:26:00,
2013-09-02 07:31:00,71.4,71.1,29.44,East,88,0.0,0.0,99,0.00,CLR,SCT,0.01,WeatherDisplay:10.37,2013-09-02 11:31:00,
2013-09-02 07:36:00,71.4,71.1,29.44,East,88,0.0,0.0,99,0.00,CLR,SCT,0.01,WeatherDisplay:10.37,2013-09-02 11:36:00,
2013-09-02 07:41:00,71.5,71.2,29.44,East,88,0.3,1.1,99,0.00,CLR,SCT,0.01,WeatherDisplay:10.37,2013-09-02 11:41:00,
2013-09-02 07:46:00,71.5,71.2,29.44,East,88,0.0,0.0,99,0.00,CLR,SCT,0.01,WeatherDisplay:10.37,2013-09-02 11:46:00,
2013-09-02 07:51:00,71.5,71.2,29.45,East,88,0.0,0.0,99,0.00,CLR,SCT,0.01,WeatherDisplay:10.37,2013-09-02 11:51:00,
2013-09-02 07:56:00,71.6,71.3,29.44,East,88,0.0,0.0,99,0.00,CLR,SCT,0.01,WeatherDisplay:10.37,2013-09-02 11:56:00,
2013-09-02 08:01:00,71.6,71.3,29.44,East,88,0.0,0.0,99,0.00,CLR,SCT,0.01,WeatherDisplay:10.37,2013-09-02 12:01:00,
2013-09-02 08:06:00,71.6,71.3,29.44,East,88,0.0,0.0,99,0.00,CLR,SCT,0.01,WeatherDisplay:10.37,2013-09-02 12:06:00,
2013-09-02 08:11:00,71.6,71.3,29.44,East,88,0.0,0.0,99,0.00,CLR,SCT,0.01,WeatherDisplay:10.37,2013-09-02 12:11:00,
2013-09-02 08:16:00,71.6,71.3,29.44,East,88,0.0,0.0,99,0.00,CLR,SCT,0.01,WeatherDisplay:10.37,2013-09-02 12:16:00,
2013-09-02 08:21:00,71.6,71.3,29.44,East,88,0.0,0.0,99,0.00,CLR,SCT,0.01,WeatherDisplay:10.37,2013-09-02 12:21:00,
2013-09-02 08:26:00,71.5,71.2,29.44,East,88,0.0,0.0,99,0.00,CLR,SCT,0.01,WeatherDisplay:10.37,2013-09-02 12:26:00,
2013-09-02 08:31:00,71.4,71.1,29.44,East,88,0.0,0.0,99,0.00,CLR,SCT,0.01,WeatherDisplay:10.37,2013-09-02 12:31:00,
2013-09-02 08:36:00,71.5,71.2,29.44,East,88,0.0,0.0,99,0.00,CLR,SCT,0.01,WeatherDisplay:10.37,2013-09-02 12:36:00,
2013-09-02 08:41:00,71.5,71.2,29.44,East,88,0.0,1.0,99,0.00,CLR,SCT,0.01,WeatherDisplay:10.37,2013-09-02 12:41:00,
2013-09-02 08:46:00,71.5,71.2,29.44,East,88,0.0,1.1,99,0.00,CLR,SCT,0.01,WeatherDisplay:10.37,2013-09-02 12:46:00,
2013-09-02 08:51:00,71.5,71.2,29.44,East,88,0.0,0.0,99,0.00,CLR,SCT,0.01,WeatherDisplay:10.37,2013-09-02 12:51:00,
2013-09-02 08:56:00,71.5,71.2,29.44,ESE,107,0.0,0.0,99,0.00,CLR,SCT,0.01,WeatherDisplay:10.37,2013-09-02 12:56:00,
2013-09-02 09:01:00,71.5,71.2,29.44,ESE,107,0.0,0.0,99,0.00,CLR,SCT,0.01,WeatherDisplay:10.37,2013-09-02 13:01:00,
2013-09-02 09:06:00,71.6,71.3,29.44,ESE,108,0.1,1.1,99,0.00,CLR,SCT,0.01,WeatherDisplay:10.37,2013-09-02 13:06:00,
2013-09-02 09:11:00,71.7,71.4,29.45,ESE,107,0.0,1.1,99,0.00,CLR,SCT,0.01,WeatherDisplay:10.37,2013-09-02 13:11:00,
2013-09-02 09:16:00,71.8,71.5,29.44,ESE,107,0.0,0.0,99,0.00,CLR,SCT,0.01,WeatherDisplay:10.37,2013-09-02 13:16:00,
2013-09-02 09:21:00,71.9,71.6,29.44,ESE,107,0.0,0.0,99,0.00,CLR,SCT,0.01,WeatherDisplay:10.37,2013-09-02 13:21:00,
2013-09-02 09:26:00,72.0,71.7,29.44,ESE,107,0.0,0.0,99,0.00,CLR,SCT,0.01,WeatherDisplay:10.37,2013-09-02 13:26:00,
2013-09-02 09:31:00,72.1,71.8,29.44,ESE,107,0.0,0.0,99,0.00,CLR,SCT,0.01,WeatherDisplay:10.37,2013-09-02 13:31:00,
2013-09-02 09:36:00,72.2,71.9,29.44,ESE,107,0.0,0.0,99,0.00,CLR,SCT,0.01,WeatherDisplay:10.37,2013-09-02 13:36:00,
2013-09-02 09:41:00,72.2,71.9,29.45,ESE,108,0.0,1.1,99,0.00,CLR,SCT,0.01,WeatherDisplay:10.37,2013-09-02 13:41:00,
2013-09-02 09:46:00,72.3,72.0,29.45,South,182,0.4,1.1,99,0.00,CLR,SCT,0.01,WeatherDisplay:10.37,2013-09-02 13:46:00,
2013-09-02 09:51:00,72.3,72.0,29.46,South,182,0.0,0.0,99,0.00,CLR,SCT,0.01,WeatherDisplay:10.37,2013-09-02 13:51:00,
2013-09-02 09:56:00,72.3,72.0,29.46,South,182,0.1,1.1,99,0.01,RA,SCT,0.02,WeatherDisplay:10.37,2013-09-02 13:56:00,
2013-09-02 10:01:00,72.2,71.9,29.46,South,182,0.0,0.0,99,0.03,RA,SCT,0.04,WeatherDisplay:10.37,2013-09-02 14:01:00,
2013-09-02 10:06:00,72.1,71.8,29.45,South,182,0.3,1.1,99,0.03,RA,SCT,0.04,WeatherDisplay:10.37,2013-09-02 14:06:00,
2013-09-02 10:11:00,72.2,71.9,29.45,South,182,0.0,0.0,99,0.03,,SCT,0.04,WeatherDisplay:10.37,2013-09-02 14:11:00,
2013-09-02 10:16:00,72.2,71.9,29.45,South,182,0.0,0.0,99,0.03,CLR,SCT,0.04,WeatherDisplay:10.37,2013-09-02 14:16:00,
2013-09-02 10:21:00,72.2,71.9,29.45,South,182,0.1,1.1,99,0.03,CLR,SCT,0.04,WeatherDisplay:10.37,2013-09-02 14:21:00,
2013-09-02 10:26:00,72.3,72.0,29.45,East,82,0.0,0.0,99,0.03,CLR,SCT,0.04,WeatherDisplay:10.37,2013-09-02 14:26:00,
2013-09-02 10:31:00,72.3,72.0,29.45,East,82,0.0,0.0,99,0.03,CLR,SCT,0.04,WeatherDisplay:10.37,2013-09-02 14:31:00,
2013-09-02 10:36:00,72.4,72.1,29.44,East,82,0.0,0.0,99,0.03,CLR,SCT,0.04,WeatherDisplay:10.37,2013-09-02 14:36:00,
2013-09-02 10:41:00,72.5,72.2,29.45,East,82,0.0,0.0,99,0.03,CLR,SCT,0.04,WeatherDisplay:10.37,2013-09-02 14:41:00,
2013-09-02 10:46:00,72.7,72.4,29.45,East,82,0.0,0.0,99,0.04,RA,SCT,0.05,WeatherDisplay:10.37,2013-09-02 14:46:00,
2013-09-02 10:51:00,72.8,72.5,29.45,East,82,0.0,0.0,99,0.04,RA,SCT,0.05,WeatherDisplay:10.37,2013-09-02 14:51:00,
2013-09-02 10:56:00,71.5,70.9,29.45,NNE,26,0.9,3.5,98,0.04,RA,SCT,0.06,WeatherDisplay:10.37,2013-09-02 14:56:00,
2013-09-02 11:01:00,70.2,69.3,29.44,East,94,0.3,1.1,97,0.02,RA,SCT,0.06,WeatherDisplay:10.37,2013-09-02 15:01:00,
2013-09-02 11:06:00,69.8,69.2,29.45,SE,144,1.6,6.0,98,0.02,CLR,SCT,0.06,WeatherDisplay:10.37,2013-09-02 15:06:00,
2013-09-02 11:11:00,69.3,68.4,29.44,ESE,109,0.7,2.3,97,0.02,CLR,SCT,0.06,WeatherDisplay:10.37,2013-09-02 15:11:00,
2013-09-02 11:16:00,69.3,68.7,29.44,ESE,105,0.1,1.1,98,0.02,CLR,SCT,0.06,WeatherDisplay:10.37,2013-09-02 15:16:00,
2013-09-02 11:21:00,69.6,69.0,29.44,East,92,0.4,1.1,98,0.02,CLR,SCT,0.06,WeatherDisplay:10.37,2013-09-02 15:21:00,
2013-09-02 11:26:00,69.7,69.1,29.44,ENE,74,0.6,3.0,98,0.02,CLR,SCT,0.06,WeatherDisplay:10.37,2013-09-02 15:26:00,
2013-09-02 11:31:00,69.8,69.2,29.44,ENE,74,0.1,1.1,98,0.02,CLR,SCT,0.06,WeatherDisplay:10.37,2013-09-02 15:31:00,
2013-09-02 11:36:00,70.0,69.4,29.44,ENE,74,0.2,1.1,98,0.02,CLR,SCT,0.06,WeatherDisplay:10.37,2013-09-02 15:36:00,
2013-09-02 11:41:00,70.3,69.7,29.44,ENE,75,0.0,0.0,98,0.02,CLR,SCT,0.06,WeatherDisplay:10.37,2013-09-02 15:41:00,
2013-09-02 11:46:00,70.4,69.8,29.44,ENE,75,0.0,0.0,98,0.01,CLR,SCT,0.06,WeatherDisplay:10.37,2013-09-02 15:46:00,
2013-09-02 11:51:00,70.8,70.2,29.44,ENE,75,0.3,1.1,98,0.01,CLR,SCT,0.06,WeatherDisplay:10.37,2013-09-02 15:51:00,
2013-09-02 11:56:00,71.1,70.5,29.43,ENE,75,0.0,0.0,98,0.00,CLR,SCT,0.06,WeatherDisplay:10.37,2013-09-02 15:56:00,
2013-09-02 12:01:00,71.1,70.5,29.44,ENE,75,0.0,0.0,98,0.00,CLR,SCT,0.06,WeatherDisplay:10.37,2013-09-02 16:01:00,
2013-09-02 12:06:00,71.2,70.6,29.44,ENE,75,0.0,0.0,98,0.00,CLR,SCT,0.06,WeatherDisplay:10.37,2013-09-02 16:06:00,
2013-09-02 12:11:00,71.5,70.9,29.44,ENE,75,0.0,0.0,98,0.00,CLR,SCT,0.06,WeatherDisplay:10.37,2013-09-02 16:11:00,
2013-09-02 12:16:00,71.8,71.2,29.43,ENE,75,0.0,0.0,98,0.00,CLR,SCT,0.06,WeatherDisplay:10.37,2013-09-02 16:16:00,
2013-09-02 12:21:00,72.0,71.4,29.43,ESE,112,0.1,1.0,98,0.00,CLR,SCT,0.06,WeatherDisplay:10.37,2013-09-02 16:21:00,
2013-09-02 12:26:00,72.0,71.1,29.43,SW,223,0.1,1.0,97,0.00,CLR,SCT,0.06,WeatherDisplay:10.37,2013-09-02 16:26:00,
2013-09-02 12:31:00,72.4,71.8,29.43,SW,223,0.0,0.0,98,0.00,CLR,SCT,0.06,WeatherDisplay:10.37,2013-09-02 16:31:00,
2013-09-02 12:36:00,72.9,72.3,29.43,SW,223,0.0,1.0,98,0.00,CLR,SCT,0.06,WeatherDisplay:10.37,2013-09-02 16:36:00,
2013-09-02 12:41:00,73.5,72.3,29.43,WSW,244,0.3,1.1,96,0.00,CLR,SCT,0.06,WeatherDisplay:10.37,2013-09-02 16:41:00,
2013-09-02 12:46:00,74.1,72.6,29.42,SW,221,0.0,1.1,95,0.00,CLR,SCT,0.06,WeatherDisplay:10.37,2013-09-02 16:46:00,
2013-09-02 12:51:00,74.7,73.2,29.42,SW,221,0.1,1.1,95,0.00,CLR,SCT,0.06,WeatherDisplay:10.37,2013-09-02 16:51:00,
2013-09-02 12:56:00,74.7,72.5,29.42,East,99,0.9,3.5,93,0.00,CLR,SCT,0.06,WeatherDisplay:10.37,2013-09-02 16:56:00,
2013-09-02 13:01:00,74.1,71.3,29.42,East,99,0.0,0.0,91,0.00,CLR,SCT,0.06,WeatherDisplay:10.37,2013-09-02 17:01:00,
2013-09-02 13:06:00,74.0,71.5,29.41,SE,144,0.0,0.0,92,0.00,CLR,SCT,0.06,WeatherDisplay:10.37,2013-09-02 17:06:00,
2013-09-02 13:11:00,74.1,71.9,29.42,SE,144,0.0,0.0,93,0.00,CLR,SCT,0.06,WeatherDisplay:10.37,2013-09-02 17:11:00,
2013-09-02 13:16:00,74.6,72.1,29.42,SW,220,0.5,2.3,92,0.00,CLR,SCT,0.06,WeatherDisplay:10.37,2013-09-02 17:16:00,
2013-09-02 13:21:00,76.3,73.1,29.41,ESE,115,0.4,2.0,90,0.00,CLR,SCT,0.06,WeatherDisplay:10.37,2013-09-02 17:21:00,
2013-09-02 13:26:00,77.6,72.0,29.41,ESE,110,0.0,0.0,83,0.00,CLR,SCT,0.06,WeatherDisplay:10.37,2013-09-02 17:26:00,
2013-09-02 13:31:00,77.4,72.2,29.41,ESE,110,0.0,0.0,84,0.00,CLR,SCT,0.06,WeatherDisplay:10.37,2013-09-02 17:31:00,
2013-09-02 13:36:00,77.3,73.5,29.41,ESE,110,0.0,1.1,88,0.00,CLR,SCT,0.06,WeatherDisplay:10.37,2013-09-02 17:36:00,
2013-09-02 13:41:00,77.2,73.0,29.41,ESE,110,0.0,0.0,87,0.00,CLR,SCT,0.06,WeatherDisplay:10.37,2013-09-02 17:41:00,
2013-09-02 13:46:00,76.7,72.9,29.41,ESE,110,0.0,0.0,88,0.00,CLR,SCT,0.06,WeatherDisplay:10.37,2013-09-02 17:46:00,
2013-09-02 13:51:00,76.4,72.6,29.41,ESE,110,0.0,0.0,88,0.00,CLR,SCT,0.06,WeatherDisplay:10.37,2013-09-02 17:51:00,
2013-09-02 13:56:00,76.0,72.9,29.41,ESE,110,0.0,0.0,90,0.00,CLR,SCT,0.06,WeatherDisplay:10.37,2013-09-02 17:56:00,
2013-09-02 14:01:00,76.0,73.2,29.41,ESE,110,0.0,0.0,91,0.00,CLR,SCT,0.06,WeatherDisplay:10.37,2013-09-02 18:01:00,
2013-09-02 14:06:00,76.6,71.0,29.41,SSW,213,0.6,2.3,83,0.00,CLR,SCT,0.06,WeatherDisplay:10.37,2013-09-02 18:06:00,
2013-09-02 14:11:00,76.6,71.7,29.41,SSW,213,0.0,0.0,85,0.00,CLR,SCT,0.06,WeatherDisplay:10.37,2013-09-02 18:11:00,
2013-09-02 14:16:00,76.5,71.7,29.41,SSW,213,0.0,0.0,85,0.00,CLR,SCT,0.06,WeatherDisplay:10.37,2013-09-02 18:16:00,
2013-09-02 14:21:00,76.4,71.9,29.41,SSW,213,0.0,0.0,86,0.00,CLR,SCT,0.06,WeatherDisplay:10.37,2013-09-02 18:21:00,
2013-09-02 14:26:00,76.4,72.2,29.40,SSW,213,0.0,1.1,87,0.00,CLR,SCT,0.06,WeatherDisplay:10.37,2013-09-02 18:26:00,
2013-09-02 14:31:00,76.1,71.6,29.40,SSW,213,0.0,0.0,86,0.00,CLR,SCT,0.06,WeatherDisplay:10.37,2013-09-02 18:31:00,
2013-09-02 14:36:00,76.0,71.8,29.40,SSW,213,0.0,0.0,87,0.00,CLR,SCT,0.06,WeatherDisplay:10.37,2013-09-02 18:36:00,
2013-09-02 14:41:00,76.0,72.2,29.40,SSW,213,0.0,0.0,88,0.00,CLR,SCT,0.06,WeatherDisplay:10.37,2013-09-02 18:41:00,
2013-09-02 14:46:00,76.0,72.5,29.40,SSW,213,0.0,0.0,89,0.00,CLR,SCT,0.06,WeatherDisplay:10.37,2013-09-02 18:46:00,
2013-09-02 14:51:00,76.0,72.9,29.40,SSW,213,0.0,0.0,90,0.00,CLR,SCT,0.06,WeatherDisplay:10.37,2013-09-02 18:51:00,
2013-09-02 14:56:00,75.8,72.0,29.40,SSW,213,0.0,0.0,88,0.00,CLR,SCT,0.06,WeatherDisplay:10.37,2013-09-02 18:56:00,
2013-09-02 15:01:00,75.6,72.1,29.41,SSW,213,0.0,0.0,89,0.00,CLR,SCT,0.06,WeatherDisplay:10.37,2013-09-02 19:01:00,
2013-09-02 15:06:00,75.7,72.6,29.41,SW,228,0.4,2.3,90,0.00,CLR,SCT,0.06,WeatherDisplay:10.37,2013-09-02 19:06:00,
2013-09-02 15:11:00,75.6,72.5,29.40,SW,228,0.0,1.1,90,0.00,CLR,SCT,0.06,WeatherDisplay:10.37,2013-09-02 19:11:00,
2013-09-02 15:16:00,75.4,72.6,29.40,SW,228,0.0,1.1,91,0.00,CLR,SCT,0.06,WeatherDisplay:10.37,2013-09-02 19:16:00,
2013-09-02 15:21:00,75.2,72.1,29.40,SW,228,0.0,0.0,90,0.00,CLR,SCT,0.06,WeatherDisplay:10.37,2013-09-02 19:21:00,
2013-09-02 15:26:00,74.9,71.8,29.40,SW,228,0.0,0.0,90,0.00,CLR,SCT,0.06,WeatherDisplay:10.37,2013-09-02 19:26:00,
2013-09-02 15:31:00,74.6,71.5,29.40,SW,228,0.0,0.0,90,0.00,CLR,SCT,0.06,WeatherDisplay:10.37,2013-09-02 19:31:00,
2013-09-02 15:36:00,74.1,71.0,29.40,SW,228,0.1,1.1,90,0.00,CLR,SCT,0.06,WeatherDisplay:10.37,2013-09-02 19:36:00,
2013-09-02 15:41:00,73.8,70.7,29.40,SW,228,0.0,0.0,90,0.00,CLR,SCT,0.06,WeatherDisplay:10.37,2013-09-02 19:41:00,
2013-09-02 15:46:00,73.7,70.9,29.40,North,355,0.3,2.0,91,0.00,CLR,SCT,0.06,WeatherDisplay:10.37,2013-09-02 19:46:00,
2013-09-02 15:51:00,73.5,70.7,29.40,North,355,0.0,0.0,91,0.00,CLR,SCT,0.06,WeatherDisplay:10.37,2013-09-02 19:51:00,
2013-09-02 15:56:00,73.3,70.5,29.40,NNE,26,0.2,3.5,91,0.00,CLR,SCT,0.06,WeatherDisplay:10.37,2013-09-02 19:56:00,
2013-09-02 16:01:00,73.1,70.0,29.40,NNE,30,0.0,0.0,90,0.00,CLR,SCT,0.06,WeatherDisplay:10.37,2013-09-02 20:01:00,
2013-09-02 16:06:00,73.0,69.9,29.40,NNE,30,0.4,1.1,90,0.00,CLR,SCT,0.06,WeatherDisplay:10.37,2013-09-02 20:06:00,
2013-09-02 16:11:00,72.9,69.5,29.39,NNE,31,0.0,0.0,89,0.00,CLR,SCT,0.06,WeatherDisplay:10.37,2013-09-02 20:11:00,
2013-09-02 16:16:00,73.0,69.6,29.39,NNE,31,0.0,1.1,89,0.00,CLR,SCT,0.06,WeatherDisplay:10.37,2013-09-02 20:16:00,
2013-09-02 16:21:00,73.0,69.9,29.39,NNE,30,0.0,0.0,90,0.00,CLR,SCT,0.06,WeatherDisplay:10.37,2013-09-02 20:21:00,
2013-09-02 16:26:00,73.1,70.0,29.39,NNE,30,0.0,0.0,90,0.00,CLR,SCT,0.06,WeatherDisplay:10.37,2013-09-02 20:26:00,
2013-09-02 16:31:00,73.0,69.9,29.39,NNE,31,0.0,1.1,90,0.00,CLR,SCT,0.06,WeatherDisplay:10.37,2013-09-02 20:31:00,
2013-09-02 16:36:00,73.1,70.0,29.39,ENE,59,0.3,1.1,90,0.00,CLR,SCT,0.06,WeatherDisplay:10.37,2013-09-02 20:36:00,
2013-09-02 16:41:00,73.2,69.8,29.39,West,265,0.9,2.3,89,0.00,CLR,SCT,0.06,WeatherDisplay:10.37,2013-09-02 20:41:00,
2013-09-02 16:46:00,73.1,69.7,29.38,West,265,0.2,1.1,89,0.00,CLR,SCT,0.06,WeatherDisplay:10.37,2013-09-02 20:46:00,
2013-09-02 16:51:00,73.1,69.7,29.38,NE,51,0.4,1.1,89,0.00,CLR,SCT,0.06,WeatherDisplay:10.37,2013-09-02 20:51:00,
2013-09-02 16:56:00,73.3,70.2,29.38,NE,51,0.0,1.1,90,0.00,CLR,SCT,0.06,WeatherDisplay:10.37,2013-09-02 20:56:00,
2013-09-02 17:01:00,73.3,70.2,29.38,NE,51,0.0,0.0,90,0.00,CLR,SCT,0.06,WeatherDisplay:10.37,2013-09-02 21:01:00,
2013-09-02 17:06:00,73.4,70.3,29.39,NE,51,0.2,1.1,90,0.00,CLR,SCT,0.06,WeatherDisplay:10.37,2013-09-02 21:06:00,
2013-09-02 17:11:00,73.3,70.5,29.39,NE,51,0.0,0.0,91,0.00,CLR,SCT,0.06,WeatherDisplay:10.37,2013-09-02 21:11:00,
2013-09-02 17:16:00,73.3,69.9,29.39,NE,50,0.1,1.1,89,0.00,CLR,SCT,0.06,WeatherDisplay:10.37,2013-09-02 21:16:00,
2013-09-02 17:21:00,73.4,70.0,29.38,ENE,57,0.1,1.1,89,0.00,CLR,SCT,0.06,WeatherDisplay:10.37,2013-09-02 21:21:00,
2013-09-02 17:26:00,73.5,69.7,29.38,ENE,68,0.3,1.1,88,0.00,CLR,SCT,0.06,WeatherDisplay:10.37,2013-09-02 21:26:00,
2013-09-02 17:31:00,73.3,69.2,29.39,ENE,72,0.6,2.3,87,0.00,CLR,SCT,0.06,WeatherDisplay:10.37,2013-09-02 21:31:00,
2013-09-02 17:36:00,73.2,69.4,29.39,ENE,72,0.0,0.0,88,0.00,CLR,SCT,0.06,WeatherDisplay:10.37,2013-09-02 21:36:00,
2013-09-02 17:41:00,73.1,69.3,29.38,ENE,72,0.0,0.0,88,0.00,CLR,SCT,0.06,WeatherDisplay:10.37,2013-09-02 21:41:00,
2013-09-02 17:46:00,72.8,69.4,29.38,ENE,72,0.0,0.0,89,0.00,CLR,SCT,0.06,WeatherDisplay:10.37,2013-09-02 21:46:00,
2013-09-02 17:51:00,72.5,69.4,29.38,ENE,72,0.0,0.0,90,0.00,CLR,SCT,0.06,WeatherDisplay:10.37,2013-09-02 21:51:00,
2013-09-02 17:56:00,72.2,69.4,29.38,ENE,72,0.0,0.0,91,0.00,CLR,SCT,0.06,WeatherDisplay:10.37,2013-09-02 21:56:00,
2013-09-02 18:01:00,72.0,69.2,29.38,ENE,72,0.0,0.0,91,0.00,CLR,SCT,0.06,WeatherDisplay:10.37,2013-09-02 22:01:00,
2013-09-02 18:06:00,71.8,69.0,29.38,ENE,72,0.0,0.0,91,0.00,CLR,SCT,0.06,WeatherDisplay:10.37,2013-09-02 22:06:00,
2013-09-02 18:11:00,71.5,69.1,29.38,ENE,72,0.0,0.0,92,0.00,CLR,SCT,0.06,WeatherDisplay:10.37,2013-09-02 22:11:00,
2013-09-02 18:16:00,71.2,68.8,29.39,ENE,72,0.0,0.0,92,0.00,CLR,SCT,0.06,WeatherDisplay:10.37,2013-09-02 22:16:00,
2013-09-02 18:21:00,71.0,68.9,29.39,ENE,72,0.0,0.0,93,0.00,CLR,SCT,0.06,WeatherDisplay:10.37,2013-09-02 22:21:00,
2013-09-02 18:26:00,70.8,69.0,29.39,ENE,72,0.0,0.0,94,0.00,CLR,SCT,0.06,WeatherDisplay:10.37,2013-09-02 22:26:00,
2013-09-02 18:31:00,70.7,68.9,29.38,ENE,72,0.0,0.0,94,0.00,CLR,SCT,0.06,WeatherDisplay:10.37,2013-09-02 22:31:00,
2013-09-02 18:36:00,70.5,68.7,29.38,ENE,72,0.0,0.0,94,0.00,CLR,SCT,0.06,WeatherDisplay:10.37,2013-09-02 22:36:00,
2013-09-02 18:41:00,70.5,68.7,29.38,ENE,72,0.0,0.0,94,0.00,CLR,SCT,0.06,WeatherDisplay:10.37,2013-09-02 22:41:00,
2013-09-02 18:46:00,70.6,68.8,29.37,ENE,72,0.0,1.0,94,0.00,CLR,SCT,0.06,WeatherDisplay:10.37,2013-09-02 22:46:00,
2013-09-02 18:51:00,70.6,69.1,29.36,ENE,76,0.1,1.1,95,0.00,CLR,SCT,0.06,WeatherDisplay:10.37,2013-09-02 22:51:00,
2013-09-02 18:56:00,70.6,69.1,29.36,ENE,66,0.4,2.3,95,0.00,CLR,SCT,0.06,WeatherDisplay:10.37,2013-09-02 22:56:00,
2013-09-02 19:01:00,70.7,68.9,29.36,ESE,115,0.7,2.3,94,0.00,CLR,SCT,0.06,WeatherDisplay:10.37,2013-09-02 23:01:00,
2013-09-02 19:06:00,70.8,69.3,29.35,ESE,115,0.1,1.1,95,0.00,CLR,SCT,0.06,WeatherDisplay:10.37,2013-09-02 23:06:00,
2013-09-02 19:11:00,70.6,68.8,29.34,West,267,0.0,1.1,94,0.00,CLR,SCT,0.06,WeatherDisplay:10.37,2013-09-02 23:11:00,
2013-09-02 19:16:00,70.6,68.8,29.34,West,267,0.2,1.1,94,0.00,CLR,SCT,0.06,WeatherDisplay:10.37,2013-09-02 23:16:00,
2013-09-02 19:21:00,70.6,68.8,29.34,West,267,0.1,1.1,94,0.00,CLR,SCT,0.06,WeatherDisplay:10.37,2013-09-02 23:21:00,
2013-09-02 19:26:00,70.6,68.8,29.34,West,267,0.2,1.1,94,0.00,CLR,SCT,0.06,WeatherDisplay:10.37,2013-09-02 23:26:00,
2013-09-02 19:31:00,70.6,68.8,29.34,West,267,0.0,0.0,94,0.00,CLR,SCT,0.06,WeatherDisplay:10.37,2013-09-02 23:31:00,
2013-09-02 19:36:00,70.5,68.7,29.34,West,264,0.6,1.1,94,0.00,CLR,SCT,0.06,WeatherDisplay:10.37,2013-09-02 23:36:00,
2013-09-02 19:41:00,70.4,68.6,29.34,West,264,0.0,1.1,94,0.00,CLR,SCT,0.06,WeatherDisplay:10.37,2013-09-02 23:41:00,
2013-09-02 19:46:00,70.2,68.4,29.34,West,264,0.0,0.0,94,0.00,CLR,SCT,0.06,WeatherDisplay:10.37,2013-09-02 23:46:00,
2013-09-02 19:51:00,70.1,68.3,29.34,West,264,0.0,0.0,94,0.00,CLR,SCT,0.06,WeatherDisplay:10.37,2013-09-02 23:51:00,
2013-09-02 19:56:00,70.0,68.5,29.35,WSW,258,0.2,1.1,95,0.00,CLR,SCT,0.06,WeatherDisplay:10.37,2013-09-02 23:56:00,
2013-09-02 20:01:00,70.0,68.5,29.35,WSW,258,0.1,1.1,95,0.00,CLR,SCT,0.06,WeatherDisplay:10.37,2013-09-03 00:01:00,
2013-09-02 20:06:00,70.0,68.5,29.35,NE,40,0.7,2.3,95,0.00,CLR,SCT,0.06,WeatherDisplay:10.37,2013-09-03 00:06:00,
2013-09-02 20:11:00,70.1,68.6,29.35,NE,40,0.0,0.0,95,0.00,CLR,SCT,0.06,WeatherDisplay:10.37,2013-09-03 00:11:00,
2013-09-02 20:16:00,70.2,68.7,29.35,NE,40,0.2,0.0,95,0.00,CLR,SCT,0.06,WeatherDisplay:10.37,2013-09-03 00:16:00,
2013-09-02 20:21:00,70.2,68.7,29.35,NE,40,0.0,0.0,95,0.00,CLR,SCT,0.06,WeatherDisplay:10.37,2013-09-03 00:21:00,
2013-09-02 20:26:00,70.3,68.8,29.36,NE,40,0.0,0.0,95,0.00,CLR,SCT,0.06,WeatherDisplay:10.37,2013-09-03 00:26:00,
2013-09-02 20:31:00,70.3,68.8,29.36,NE,40,0.0,0.0,95,0.00,CLR,SCT,0.06,WeatherDisplay:10.37,2013-09-03 00:31:00,
2013-09-02 20:36:00,70.1,68.6,29.36,NE,40,0.0,0.0,95,0.00,CLR,SCT,0.06,WeatherDisplay:10.37,2013-09-03 00:36:00,
2013-09-02 20:41:00,70.0,68.2,29.36,NE,40,0.0,0.0,94,0.00,CLR,SCT,0.06,WeatherDisplay:10.37,2013-09-03 00:41:00,
2013-09-02 20:46:00,69.7,68.2,29.36,NE,40,0.0,1.0,95,0.00,CLR,SCT,0.06,WeatherDisplay:10.37,2013-09-03 00:46:00,
2013-09-02 20:51:00,69.5,68.3,29.36,NE,40,0.0,0.0,96,0.00,CLR,SCT,0.06,WeatherDisplay:10.37,2013-09-03 00:51:00,
2013-09-02 20:56:00,69.4,68.2,29.36,NE,40,0.0,0.0,96,0.00,CLR,SCT,0.06,WeatherDisplay:10.37,2013-09-03 00:56:00,
2013-09-02 21:01:00,69.3,68.1,29.37,NE,40,0.0,0.0,96,0.00,CLR,SCT,0.06,WeatherDisplay:10.37,2013-09-03 01:01:00,
2013-09-02 21:06:00,69.3,68.1,29.37,NE,40,0.0,0.0,96,0.00,CLR,SCT,0.06,WeatherDisplay:10.37,2013-09-03 01:06:00,
2013-09-02 21:11:00,69.2,68.0,29.37,NE,40,0.0,1.1,96,0.00,CLR,SCT,0.06,WeatherDisplay:10.37,2013-09-03 01:11:00,
2013-09-02 21:16:00,69.2,68.0,29.38,NE,40,0.0,0.0,96,0.00,CLR,SCT,0.06,WeatherDisplay:10.37,2013-09-03 01:16:00,
2013-09-02 21:21:00,69.1,67.9,29.38,NE,40,0.0,0.0,96,0.00,CLR,SCT,0.06,WeatherDisplay:10.37,2013-09-03 01:21:00,
2013-09-02 21:26:00,69.1,67.9,29.38,NE,40,0.0,0.0,96,0.00,CLR,SCT,0.06,WeatherDisplay:10.37,2013-09-03 01:26:00,
2013-09-02 21:31:00,69.0,67.8,29.38,NE,40,0.0,0.0,96,0.00,CLR,SCT,0.06,WeatherDisplay:10.37,2013-09-03 01:31:00,
2013-09-02 21:36:00,68.8,67.6,29.38,NE,40,0.0,0.0,96,0.00,CLR,SCT,0.06,WeatherDisplay:10.37,2013-09-03 01:36:00,
2013-09-02 21:41:00,68.6,67.7,29.38,NE,40,0.0,0.0,97,0.00,CLR,SCT,0.06,WeatherDisplay:10.37,2013-09-03 01:41:00,
2013-09-02 21:46:00,68.4,67.5,29.39,NE,40,0.0,0.0,97,0.00,CLR,SCT,0.06,WeatherDisplay:10.37,2013-09-03 01:46:00,
2013-09-02 21:51:00,68.3,67.4,29.39,NE,40,0.0,0.0,97,0.00,CLR,SCT,0.06,WeatherDisplay:10.37,2013-09-03 01:51:00,
2013-09-02 21:56:00,68.3,67.4,29.39,NE,40,0.0,0.0,97,0.00,CLR,SCT,0.06,WeatherDisplay:10.37,2013-09-03 01:56:00,
2013-09-02 22:01:00,68.3,67.4,29.39,NE,40,0.0,0.0,97,0.00,CLR,SCT,0.06,WeatherDisplay:10.37,2013-09-03 02:01:00,
2013-09-02 22:06:00,68.3,67.4,29.40,NE,40,0.0,0.0,97,0.00,CLR,SCT,0.06,WeatherDisplay:10.37,2013-09-03 02:06:00,
2013-09-02 22:11:00,68.2,67.3,29.40,NE,40,0.0,0.0,97,0.00,CLR,SCT,0.06,WeatherDisplay:10.37,2013-09-03 02:11:00,
2013-09-02 22:16:00,68.2,67.3,29.40,NE,40,0.0,1.1,97,0.00,CLR,SCT,0.06,WeatherDisplay:10.37,2013-09-03 02:16:00,
2013-09-02 22:21:00,68.1,67.5,29.40,NE,40,0.0,0.0,98,0.00,CLR,SCT,0.06,WeatherDisplay:10.37,2013-09-03 02:21:00,
2013-09-02 22:26:00,68.2,67.6,29.40,NE,40,0.0,0.0,98,0.00,CLR,SCT,0.06,WeatherDisplay:10.37,2013-09-03 02:26:00,
2013-09-02 22:31:00,68.3,67.7,29.40,NE,40,0.0,0.0,98,0.00,CLR,SCT,0.06,WeatherDisplay:10.37,2013-09-03 02:31:00,
2013-09-02 22:36:00,68.2,67.6,29.41,NE,40,0.0,0.0,98,0.00,CLR,SCT,0.06,WeatherDisplay:10.37,2013-09-03 02:36:00,
2013-09-02 22:41:00,68.2,67.6,29.41,NE,40,0.0,0.0,98,0.00,CLR,SCT,0.06,WeatherDisplay:10.37,2013-09-03 02:41:00,
2013-09-02 22:46:00,68.3,67.7,29.41,NE,38,0.0,0.0,98,0.00,CLR,SCT,0.06,WeatherDisplay:10.37,2013-09-03 02:46:00,
2013-09-02 22:51:00,68.3,67.7,29.41,NE,38,0.0,0.0,98,0.00,CLR,SCT,0.06,WeatherDisplay:10.37,2013-09-03 02:51:00,
2013-09-02 22:56:00,68.4,67.8,29.41,NE,55,0.0,0.0,98,0.00,CLR,SCT,0.06,WeatherDisplay:10.37,2013-09-03 02:56:00,
2013-09-02 23:01:00,68.4,67.8,29.41,NE,55,0.0,1.0,98,0.00,CLR,SCT,0.06,WeatherDisplay:10.37,2013-09-03 03:01:00,
2013-09-02 23:06:00,68.4,67.8,29.42,NE,55,0.8,1.1,98,0.00,CLR,SCT,0.06,WeatherDisplay:10.37,2013-09-03 03:06:00,
2013-09-02 23:11:00,68.3,67.7,29.42,ENE,59,0.6,2.3,98,0.00,CLR,SCT,0.06,WeatherDisplay:10.37,2013-09-03 03:11:00,
2013-09-02 23:16:00,68.3,67.4,29.42,ENE,59,0.0,0.0,97,0.00,CLR,SCT,0.06,WeatherDisplay:10.37,2013-09-03 03:16:00,
2013-09-02 23:21:00,68.3,67.4,29.42,ENE,59,0.0,0.0,97,0.00,CLR,SCT,0.06,WeatherDisplay:10.37,2013-09-03 03:21:00,
2013-09-02 23:26:00,68.2,67.3,29.42,ENE,59,0.0,0.0,97,0.00,CLR,SCT,0.06,WeatherDisplay:10.37,2013-09-03 03:26:00,
2013-09-02 23:31:00,68.1,67.2,29.42,ENE,59,0.0,0.0,97,0.00,CLR,SCT,0.06,WeatherDisplay:10.37,2013-09-03 03:31:00,
2013-09-02 23:36:00,68.1,67.2,29.42,ENE,59,0.0,0.0,97,0.00,CLR,SCT,0.06,WeatherDisplay:10.37,2013-09-03 03:36:00,
2013-09-02 23:41:00,68.1,67.2,29.43,ENE,59,0.0,0.0,97,0.00,CLR,SCT,0.06,WeatherDisplay:10.37,2013-09-03 03:41:00,
2013-09-02 23:46:00,68.0,67.1,29.43,ENE,59,0.0,0.0,97,0.00,CLR,SCT,0.06,WeatherDisplay:10.37,2013-09-03 03:46:00,
2013-09-02 23:51:00,68.0,67.1,29.43,ENE,59,0.0,0.0,97,0.00,CLR,SCT,0.06,WeatherDisplay:10.37,2013-09-03 03:51:00,
2013-09-02 23:56:00,68.1,67.2,29.43,ENE,59,0.2,1.1,97,0.00,CLR,SCT,0.06,WeatherDisplay:10.37,2013-09-03 03:56:00,